Simultaneous Nadir Overpasses (SNOs) Predictions

Prediction of SNOs between GOES-14 and NOAA-20 Satellite Orbit:

Table of predicted SNOs for the next 14.0 days since TLE Epoch: 11/11/2023
Index Date Time (GOES-14) GOES-14 Lat,Lon NOAA-20 Lat,Lon Distance(km) Time Diff (sec)
1 11/11/2023 20:36:27 -0.06,-108.58 0.21,-107.51 122.45 80
2 11/13/2023 08:55:36 0.03,-108.63 0.94,-112.80 473.95 80
3 11/14/2023 08:39:32 0.05,-108.63 -0.04,-108.26 42.33 80
4 11/16/2023 20:40:06 -0.04,-108.57 -0.12,-109.05 53.37 80
5 11/17/2023 20:24:01 -0.05,-108.57 0.87,-104.51 462.51 80
6 11/19/2023 08:43:10 0.02,-108.61 0.26,-109.79 134.79 80
7 11/20/2023 08:27:06 0.03,-108.60 -0.72,-105.26 381.12 80
8 11/21/2023 20:46:23 -0.00,-108.55 -0.46,-110.57 230.42 80
9 11/22/2023 20:30:19 -0.02,-108.55 0.53,-106.04 285.71 80
10 11/24/2023 08:49:28 -0.01,-108.59 0.59,-111.32 311.06 80
